Ellsworth AFB, SD

4:08 AM MST on December 15, 2017 (GMT -0700)
Ellsworth Air Force Base

Weather History for KRCA - October, 2011

Change the Weather History Date:

Tuesday, October 11, 2011

  Actual Average Record
Temperature  
Mean Temperature 52 °F -  
Max Temperature 68 °F 61 °F 87 °F (2015)
Min Temperature 37 °F 37 °F 27 °F (2006)
Degree Days  
Heating Degree Days 12    
Growing Degree Days 2 (Base 50)    
Moisture  
Dew Point 38 °F    
Average Humidity 55    
Maximum Humidity 86    
Minimum Humidity 29    
Precipitation  
Precipitation 0.00 in - - ()
Sea Level Pressure  
Sea Level Pressure 29.69 in    
Wind  
Wind Speed 5 mph (WNW)    
Max Wind Speed 15 mph    
Max Gust Speed -    
Visibility 10 miles    
Events Rain    
Averages and records for this station are not official NWS values.
T = Trace of Precipitation, MM = Missing Value Source: NWS Daily Summary

Daily Weather History Graph

Daily Weather History Graph

Search for Another Location

Airport or City:

Trip Planner

Search our weather history database for the weather conditions in past years. The results will help you decide how hot, cold, wet, or windy it might be!

Date:

Astronomy

Oct. 11, 2011 Rise Set
Actual Time 7:01 AM MDT 6:15 PM MDT
Civil Twilight 6:32 AM MDT 6:44 PM MDT
Nautical Twilight 5:59 AM MDT 7:18 PM MDT
Astronomical Twilight 5:25 AM MDT 7:51 PM MDT
Moon 5:46 PM MDT (10/11) 6:43 AM MDT (10/11)
Length of Visible Light 12h 11m
Length of Day
11h 13m
Full, 100% of the Moon is Illuminated
Oct 11
Full
Oct 11
Full
Oct 19
Last Quarter
Oct 26
New
Nov 2
First Quarter

Hourly Weather History & Observations

Time (MDT) Temp. Windchill Dew Point Humidity Pressure Visibility Wind Dir Wind Speed Gust Speed Precip Events Conditions
12:55 AM 46.9 °F - 34.3 °F 62% 29.72 in 10.0 mi South 3.5 mph - N/A   Clear
1:55 AM 40.8 °F 36.9 °F 34.9 °F 79% 29.72 in 10.0 mi West 5.8 mph - N/A   Clear
2:55 AM 44.6 °F 42.2 °F 32.9 °F 64% 29.69 in 10.0 mi West 4.6 mph - N/A   Clear
3:55 AM 45.5 °F - 33.4 °F 63% 29.68 in 10.0 mi Calm Calm - N/A   Clear
4:55 AM 42.6 °F 39.0 °F 34.3 °F 73% 29.68 in 10.0 mi South 5.8 mph - N/A   Clear
5:55 AM 45.7 °F - 34.3 °F 65% 29.68 in 10.0 mi Calm Calm - N/A   Clear
6:55 AM 37.4 °F - 33.6 °F 86% 29.70 in 10.0 mi Calm Calm - N/A   Scattered Clouds
7:55 AM 46.2 °F - 36.9 °F 70% 29.68 in 10.0 mi Calm Calm - N/A   Mostly Cloudy
8:55 AM 48.0 °F - 40.5 °F 75% 29.68 in 10.0 mi West 8.1 mph - N/A   Partly Cloudy
9:05 AM 50.0 °F - 41.0 °F 71% 29.68 in 7.0 mi WSW 4.6 mph - N/A   Scattered Clouds
9:55 AM 58.6 °F - 39.6 °F 49% 29.67 in 10.0 mi West 9.2 mph - N/A   Mostly Cloudy
10:55 AM 60.1 °F - 41.2 °F 50% 29.68 in 10.0 mi Calm Calm - N/A   Mostly Cloudy
11:55 AM 64.2 °F - 38.7 °F 39% 29.67 in 10.0 mi North 5.8 mph - N/A   Scattered Clouds
12:55 PM 64.9 °F - 38.1 °F 37% 29.66 in 10.0 mi NNE 8.1 mph - N/A   Clear
1:55 PM 66.4 °F - 34.3 °F 31% 29.65 in 10.0 mi ENE 5.8 mph - N/A   Clear
2:55 PM 68.5 °F - 35.1 °F 29% 29.64 in 10.0 mi Variable 5.8 mph - N/A   Partly Cloudy
3:55 PM 68.7 °F - 35.1 °F 29% 29.64 in 10.0 mi East 4.6 mph - N/A   Scattered Clouds
4:39 PM 68.0 °F - 35.6 °F 30% 29.65 in 10.0 mi Variable 4.6 mph - N/A   Scattered Clouds
4:55 PM 67.3 °F - 36.0 °F 32% 29.65 in 10.0 mi East 5.8 mph - 0.00 in   Scattered Clouds
5:55 PM 62.1 °F - 37.4 °F 40% 29.68 in 10.0 mi SE 3.5 mph - N/A   Scattered Clouds
6:55 PM 59.5 °F - 37.6 °F 44% 29.71 in 10.0 mi Calm Calm - N/A   Scattered Clouds
7:55 PM 54.0 °F - 38.7 °F 56% 29.72 in 10.0 mi WNW 5.8 mph - N/A   Partly Cloudy
8:55 PM 53.4 °F - 37.0 °F 54% 29.72 in 10.0 mi West 3.5 mph - N/A   Scattered Clouds
9:55 PM 55.4 °F - 39.6 °F 55% 29.72 in 10.0 mi NNW 15.0 mph - N/A   Overcast
10:55 PM 56.7 °F - 41.4 °F 57% 29.75 in 10.0 mi WNW 12.7 mph - N/A   Overcast
11:04 PM 57.2 °F - 41.0 °F 55% 29.76 in 10.0 mi WNW 10.4 mph - N/A   Light Drizzle
11:55 PM 55.6 °F - 43.9 °F 65% 29.75 in 10.0 mi NNW 10.4 mph - 0.00 in   Overcast
11:59 PM 55.4 °F - 44.6 °F 67% 29.75 in 10.0 mi NW 10.4 mph - N/A Rain Light Rain